Погода в Аксакове

Россия / Московская область     56°02′28″N   37°36′45″E
темп.,
°C
ветер,
м/с
пор.,
м/с
влажн.,
%
обл.,
%
осадки,
мм/ч
давл.,
гПа
погр.,
м
16 апреля, пт
пт1600:00+9св61586100 0.1 1018530
03:00+8всв51389100 0.1 1019524
06:00+7всв61391100 0.1 1019490
09:00+9всв61082100 0.9 1020541
12:00+13всв6863100 0.4 1021833
15:00+15всв6956100 0.4 10201193
18:00+14всв71165100 0.0 10201070
21:00+10всв61479100 0.0 1021657
17 апреля, сб
сб1700:00+9всв61485100 0.3 1021641
03:00+7всв5118798 0.3 1022470
06:00+7всв5108792 0.4 1023415
09:00+9всв61075100 0.4 1023495
12:00+13всв695891 0.0 1022894
15:00+16всв7104983 0.0 10211233
18:00+14всв7115355 0.0 10211080
21:00+10всв714565 0.0 1022789
18 апреля, вс
вс1800:00+8всв6145627 0.0 1022640
03:00+7всв51261100 0.0 1022565
06:00+6всв51067100 0.1 1022590
09:00+7в51063100 0.4 1023736
12:00+6в51077100 0.7 1024877
15:00+6вюв51184100 3.3 1024845
18:00+6вюв41184100 0.6 10251016
21:00+6в4128099 1.0 1025960
19 апреля, пн
пн1900:00+6в51186100 0.1 10251044
03:00+6в4986100 0.2 1025844
06:00+6всв5991100 0.3 1025976
09:00+5в51089100 0.4 1026688
12:00+6в51083100 0.1 1026631
15:00+6в6977100 0.1 1026733
18:00+6в61178100 0.0 1025731
21:00+6в61381100 0.0 1025791
20 апреля, вт
вт2000:00+7в71374100 0.0 1023847
03:00+4в6157291 0.0 1022567
06:00+3в71678100 0.0 1020620
09:00+5в71676100 0.0 1018754
12:00+6в91674100 0.0 1015958
15:00+7в101983100 1.6 10111273
18:00+6в112088100 5.1 10081294
21:00+7вюв102288100 7.9 10061414